Location: Newport
(44.6370°N, 124.0520°W)
Time: 20:12:23
(UTC-07:00)

Envisat - Pass Details

Date: 08 October 2017
Orbit: 764 x 766 km, 98.2° (Epoch: 20 October)

Event Time Altitude Azimuth Distance (km) Brightness Sun altitude
Exits shadow 22:42:04 11° 270° (W) 2,229 5.8 -40.9°
Maximum altitude 22:42:23 11° 273° (W) 2,226 5.8 -40.9°
Drops below altitude 10° 22:43:50 10° 290° (WNW) 2,307 6.1 -41.1°
Sets 22:48:08 0° 325° (NW) 3,241 7.0 -41.7°
